TimeCST,TemperatureF,Dew PointF,Humidity,Sea Level PressureIn,VisibilityMPH,Wind Direction,Wind SpeedMPH,Gust SpeedMPH,PrecipitationIn,Events,Conditions,WindDirDegrees,DateUTC
12:15 AM,32.2,11.7,43,30.38,10.0,Calm,Calm,-,N/A,,Clear,0,2013-03-06 06:15:00
12:35 AM,32.9,12.6,43,30.38,10.0,NNW,5.8,-,N/A,,Clear,330,2013-03-06 06:35:00
12:55 AM,32.7,12.4,43,30.38,10.0,WNW,3.5,-,N/A,,Clear,300,2013-03-06 06:55:00
1:15 AM,31.1,13.3,48,30.38,10.0,NW,4.6,-,N/A,,Clear,310,2013-03-06 07:15:00
1:35 AM,31.6,12.9,46,30.38,10.0,Calm,Calm,-,N/A,,Clear,0,2013-03-06 07:35:00
1:55 AM,31.8,12.7,45,30.38,10.0,Calm,Calm,-,N/A,,Clear,0,2013-03-06 07:55:00
2:15 AM,32.4,12.2,43,30.37,10.0,Calm,Calm,-,N/A,,Clear,0,2013-03-06 08:15:00
2:35 AM,30.2,14.5,52,30.37,10.0,Calm,Calm,-,N/A,,Clear,0,2013-03-06 08:35:00
2:55 AM,30.6,13.1,48,30.37,10.0,NW,3.5,-,N/A,,Clear,310,2013-03-06 08:55:00
3:15 AM,31.8,12.9,46,30.36,10.0,NNW,3.5,-,N/A,,Clear,330,2013-03-06 09:15:00
3:35 AM,30.4,13.3,49,30.36,10.0,NW,3.5,-,N/A,,Clear,320,2013-03-06 09:35:00
3:55 AM,30.2,13.6,50,30.37,10.0,NW,3.5,-,N/A,,Clear,310,2013-03-06 09:55:00
4:15 AM,30.2,13.6,50,30.37,10.0,WNW,4.6,-,N/A,,Clear,290,2013-03-06 10:15:00
4:35 AM,31.6,13.3,47,30.38,10.0,WNW,4.6,-,N/A,,Clear,290,2013-03-06 10:35:00
4:55 AM,30.2,13.5,50,30.38,10.0,Calm,Calm,-,N/A,,Clear,0,2013-03-06 10:55:00
5:15 AM,31.3,13.1,47,30.37,10.0,Calm,Calm,-,N/A,,Clear,0,2013-03-06 11:15:00
5:35 AM,25.9,12.0,56,30.38,10.0,Calm,Calm,-,N/A,,Clear,0,2013-03-06 11:35:00
6:15 AM,28.6,14.4,55,30.39,10.0,Calm,Calm,-,N/A,,Clear,0,2013-03-06 12:15:00
6:35 AM,28.6,14.5,56,30.39,10.0,Calm,Calm,-,N/A,,Clear,0,2013-03-06 12:35:00
6:55 AM,28.0,14.9,58,30.40,10.0,WNW,3.5,-,N/A,,Clear,290,2013-03-06 12:55:00
7:15 AM,29.5,14.7,54,30.40,10.0,Calm,Calm,-,N/A,,Clear,0,2013-03-06 13:15:00
7:35 AM,30.2,16.3,56,30.40,10.0,Calm,Calm,-,N/A,,Clear,0,2013-03-06 13:35:00
7:55 AM,31.5,17.2,56,30.41,10.0,Calm,Calm,-,N/A,,Clear,0,2013-03-06 13:55:00
8:15 AM,33.8,15.8,48,30.41,10.0,Calm,Calm,-,N/A,,Clear,0,2013-03-06 14:15:00
8:35 AM,38.8,14.0,36,30.41,10.0,ESE,3.5,-,N/A,,Clear,120,2013-03-06 14:35:00
8:55 AM,43.7,14.0,30,30.42,10.0,ESE,9.2,-,N/A,,Clear,110,2013-03-06 14:55:00
9:15 AM,45.1,12.9,27,30.43,10.0,ESE,9.2,-,N/A,,Clear,110,2013-03-06 15:15:00
9:35 AM,45.9,13.6,27,30.43,10.0,ESE,8.1,-,N/A,,Clear,110,2013-03-06 15:35:00
9:55 AM,47.7,13.5,25,30.42,10.0,ESE,6.9,-,N/A,,Clear,110,2013-03-06 15:55:00
10:15 AM,49.1,13.8,24,30.43,10.0,SE,3.5,-,N/A,,Clear,130,2013-03-06 16:15:00
10:35 AM,50.9,13.1,22,30.42,10.0,SSE,9.2,-,N/A,,Clear,150,2013-03-06 16:35:00
10:55 AM,50.4,11.8,21,30.41,10.0,ESE,10.4,-,N/A,,Clear,120,2013-03-06 16:55:00
11:15 AM,52.9,12.9,20,30.40,10.0,SSE,9.2,16.1,N/A,,Clear,150,2013-03-06 17:15:00
11:35 AM,54.0,10.8,18,30.39,10.0,ESE,10.4,17.3,N/A,,Clear,120,2013-03-06 17:35:00
11:55 AM,54.7,10.8,17,30.38,10.0,ESE,10.4,16.1,N/A,,Clear,120,2013-03-06 17:55:00
12:15 PM,56.1,10.8,17,30.37,10.0,SSE,10.4,16.1,N/A,,Clear,160,2013-03-06 18:15:00
12:35 PM,56.1,9.0,15,30.35,10.0,SE,11.5,16.1,N/A,,Clear,130,2013-03-06 18:35:00
12:55 PM,57.7,10.6,15,30.32,10.0,ESE,11.5,18.4,N/A,,Clear,120,2013-03-06 18:55:00
1:15 PM,58.1,9.5,15,30.30,10.0,SE,12.7,17.3,N/A,,Clear,130,2013-03-06 19:15:00
1:35 PM,60.3,10.2,14,30.27,10.0,SSE,13.8,18.4,N/A,,Clear,150,2013-03-06 19:35:00
1:55 PM,59.0,9.3,14,30.27,10.0,SE,12.7,18.4,N/A,,Clear,140,2013-03-06 19:55:00
2:15 PM,60.4,10.2,14,30.27,10.0,SSE,8.1,-,N/A,,Clear,150,2013-03-06 20:15:00
2:35 PM,60.4,8.6,13,30.26,10.0,SSE,10.4,-,N/A,,Clear,160,2013-03-06 20:35:00
2:55 PM,60.3,8.8,13,30.25,10.0,South,10.4,-,N/A,,Clear,170,2013-03-06 20:55:00
3:15 PM,59.4,8.1,13,30.25,10.0,South,9.2,16.1,N/A,,Clear,170,2013-03-06 21:15:00
3:35 PM,61.5,10.0,13,30.22,10.0,SE,10.4,16.1,N/A,,Clear,140,2013-03-06 21:35:00
4:15 PM,61.0,10.2,14,30.20,10.0,SSE,11.5,17.3,N/A,,Clear,150,2013-03-06 22:15:00
4:35 PM,62.8,10.4,13,30.20,10.0,SE,10.4,17.3,N/A,,Clear,130,2013-03-06 22:35:00
4:55 PM,63.0,11.1,13,30.19,10.0,SE,10.4,-,N/A,,Clear,140,2013-03-06 22:55:00
5:15 PM,62.4,11.3,14,30.19,10.0,SSE,11.5,-,N/A,,Clear,160,2013-03-06 23:15:00
5:35 PM,61.7,10.9,14,30.19,10.0,SE,9.2,-,N/A,,Clear,140,2013-03-06 23:35:00
5:55 PM,59.5,11.3,15,30.19,10.0,SE,6.9,-,N/A,,Clear,130,2013-03-06 23:55:00
6:15 PM,58.6,10.4,15,30.19,10.0,SE,10.4,-,N/A,,Clear,140,2013-03-07 00:15:00
6:35 PM,56.7,10.4,16,30.19,10.0,SSE,9.2,-,N/A,,Clear,150,2013-03-07 00:35:00
6:55 PM,54.7,10.6,17,30.18,10.0,SSE,9.2,-,N/A,,Clear,150,2013-03-07 00:55:00
7:15 PM,53.6,11.1,18,30.18,10.0,SE,8.1,-,N/A,,Clear,140,2013-03-07 01:15:00
7:35 PM,51.3,12.6,21,30.18,10.0,SSE,5.8,-,N/A,,Clear,150,2013-03-07 01:35:00
7:55 PM,49.5,12.6,23,30.18,10.0,SE,4.6,-,N/A,,Clear,140,2013-03-07 01:55:00
8:35 PM,50.0,11.7,21,30.18,10.0,SSE,8.1,-,N/A,,Clear,150,2013-03-07 02:35:00
8:55 PM,50.4,11.5,21,30.19,10.0,SSE,6.9,-,N/A,,Clear,160,2013-03-07 02:55:00
9:15 PM,50.0,11.8,22,30.19,10.0,SSE,8.1,-,N/A,,Clear,150,2013-03-07 03:15:00
9:35 PM,48.9,11.8,23,30.19,10.0,South,9.2,-,N/A,,Clear,170,2013-03-07 03:35:00
9:55 PM,49.5,11.3,22,30.19,10.0,South,9.2,-,N/A,,Clear,170,2013-03-07 03:55:00
10:15 PM,49.5,11.3,22,30.18,10.0,South,10.4,-,N/A,,Clear,170,2013-03-07 04:15:00
10:35 PM,49.5,11.5,22,30.18,10.0,South,10.4,-,N/A,,Clear,170,2013-03-07 04:35:00
10:55 PM,49.1,11.8,22,30.18,10.0,South,10.4,-,N/A,,Clear,170,2013-03-07 04:55:00
11:15 PM,47.5,12.6,25,30.17,10.0,South,8.1,-,N/A,,Clear,180,2013-03-07 05:15:00
11:35 PM,47.3,12.9,25,30.16,10.0,South,9.2,-,N/A,,Clear,190,2013-03-07 05:35:00
11:55 PM,46.8,13.1,26,30.15,10.0,SSW,8.1,-,N/A,,Clear,200,2013-03-07 05:55:00